Location: Artiguedieu
(43.5000°N, 0.5454°E)
Time: 11:45:00
(UTC+00:00)

Cosmos 494 Rocket - Pass Details

Date: 06 December 2020
Orbit: 743 x 770 km, 74.1° (Epoch: 27 January)

Event Time Altitude Azimuth Distance (km) Brightness Sun altitude
Exits shadow 05:39:38 11° 340° (NNW) 2,186 6.0 -16.9°
Maximum altitude 05:44:34 89° 74° (ENE) 751 3.9 -16.1°
Drops below altitude 10° 05:49:40 10° 161° (SSE) 2,249 6.9 -15.2°
Sets 05:52:00 0° 161° (SSE) 3,167 7.7 -14.8°
